Regional Weather Roundup
Issued by NWS Wilmington, NC

Home | Current Version | Previous Version | Text Only | Print | Product List | Glossary On
Versions: 1 2 3 4 5 6 7 8 9 10 11 12 13 14 15 16 17 18 19 20 21 22 23 24 25 26 27 28 29 30 31 32 33 34 35 36 37 38 39 40 41 42 43 44 45 46 47 48 49 50
755
ASUS42 KILM 211512
RWRILM
RWRILM
REGIONAL HOURLY WEATHER ROUNDUP
NATIONAL WEATHER SERVICE WILMINGTON NC
1000 AM EST SAT JAN 21 2017

NOTE: "FAIR" INDICATES FEW OR NO CLOUDS BELOW 12,000 FEET WITH NO
SIGNIFICANT WEATHER AND/OR OBSTRUCTIONS TO VISIBILITY.

...............WFO WILMINGTON COUNTY WARNING AREA...............

......COASTAL NC AND SC COUNTIES......

CITY           SKY/WX    TMP DP  RH WIND       PRES   REMARKS
WILMINGTON     CLOUDY    58  57  97 E7        29.93R
N MYRTLE BEACH LGT RAIN  60  60 100 E5        29.91R FOG
MYRTLE BEACH   CLOUDY    64  61  88 SE6       29.93R

......INLAND NC AND SC COUNTIES.......

CITY           SKY/WX    TMP DP  RH WIND       PRES   REMARKS
LUMBERTON      FOG       56  56 100 E3        29.89F VSB 1/4
ELIZABETHTOWN  FOG       55  55 100 CALM      29.91S VSB 1/4
WHITEVILLE     CLOUDY    60  59  96 CALM      29.90S
FLORENCE       CLOUDY    62  62 100 CALM      29.88F
DARLINGTON     FOG       54  54 100 NE5       29.89S VSB 3/4
KINGSTREE      CLOUDY    63  59  88 SE6       29.90R
HARTSVILLE     CLOUDY    54  54 100 E5        29.88F VSB 1/2
BENNETTSVILLE  CLOUDY    55  55 100 CALM      29.90R VSB 1/2
CONWAY         FAIR      63  61  94 CALM      29.91S FOG
GEORGETOWN     CLOUDY    63  61  94 SE5       29.92R FOG
MARION         FAIR      61  59  94 SE5       29.89F

....................REST OF NORTH CAROLINA......................

.........EASTERN NC.........

CITY           SKY/WX    TMP DP  RH WIND       PRES   REMARKS
CAPE HATTERAS  FOG       53  52  96 E6        29.96S VSB 1/4
JACKSONVILLE   CLOUDY    51  51 100 SE3       29.94F FOG
MOREHEAD CITY  FOG       53  53 100 NE7       29.94F VSB 1/4
KENANSVILLE    CLOUDY    52  52 100 E3        29.93S FOG
NEW BERN       CLOUDY    50  49  96 E6        29.95F FOG
ELIZABETH CITY FOG       49  49 100 SE3       29.97R VSB 1/2

.........CENTRAL NC.........

CITY           SKY/WX    TMP DP  RH WIND       PRES   REMARKS
RALEIGH DURHAM FOG       52  51  97 E5        29.92S VSB 1/8
ROCKY MOUNT    CLOUDY    49  49 100 CALM      29.93S FOG
ROANOKE RAPIDS NOT AVBL
FAYETTEVILLE   FOG       53  53 100 E3        29.90S VSB 1/4
HOFFMAN        FOG       54  54 100 E3        29.89S VSB 1/2

.........WESTERN NC.........

CITY           SKY/WX    TMP DP  RH WIND       PRES   REMARKS
CHARLOTTE      FOG       54  53  97 VRB6      29.89S VSB 1/2
GREENSBORO     FOG       53  53 100 SE3       29.90R VSB 1
HICKORY        NOT AVBL
BOONE          NOT AVBL
ASHEVILLE      NOT AVBL

.....................REST OF SOUTH CAROLINA.....................

.........EASTERN SC.........

CITY           SKY/WX    TMP DP  RH WIND       PRES   REMARKS
CHARLESTON     CLOUDY    66  64  93 SW3       29.91R FOG
BEAUFORT MCAS  LGT RAIN  67  65  93 SE3       29.91S FOG
HILTON HEAD    CLOUDY    66  66 100 S9        29.92R FOG

.........CENTRAL SC.........

CITY           SKY/WX    TMP DP  RH WIND       PRES   REMARKS
COLUMBIA       FOG       62  61  96 SE3       29.88R VSB 1/4
ORANGEBURG     HVY RAIN  63  63 100 SE6       29.89R FOG
SUMTER SHAW    CLOUDY    61  59  94 S3        29.87R FOG

.........WESTERN SC.........

CITY           SKY/WX    TMP DP  RH WIND       PRES   REMARKS
GREENVILLE     NOT AVBL
ROCK HILL      CLOUDY    53  53 100 VRB3      29.89R FOG
ANDERSON       CLOUDY    56  55  97 E5        29.86R FOG
CLEMSON        NOT AVBL
GREENWOOD      FOG       55  54  96 E3        29.88R VSB 1/4


...................COASTAL AND OFFSHORE REPORTS..................

................LOCAL PIERS AND NC RESERVE................


STATION/POSITION TIME  SKY/WX   TEMP    WIND        PRES    VSBY
                                AIR SEA DIR/SP/G
                 (UTC)          (F)     (DEG/KT/KT) (MB)    (MI)
JOHNY MRCER PIER 1448                    30/  9/ 10   N/A
NC RESRV MASNBRO 1345            55      70/  3     1012.0
OCEAN CREST PIER NOT AVBL
SPRINGMAID  PIER NOT AVBL


................COASTAL AND OFFSHORE BUOYS................


STATION/POSITION TIME  SKY/WX   TEMP    WIND        PRES    VSBY
                                AIR SEA DIR/SP/G
                 (UTC)          (F)     (DEG/KT/KT) (MB)    (MI)
DIMNDSHOAL 41025 1450            60 74   60/  6/  8 1014.5R
WVE H/P(F/S)=  4/11 SWL H/P/D(F/S/D)=  3/ 60/11

CAPE LOOKOUT     1400            58      60/  9/ 10 1013.6R
ONSLOW BAY 41036 NOT AVBL
ONSLOW BAY 41064 1408            59 63  100/  6/ 10 1014.0R
ONSLOW BAY 41159 1443               63                N/A
WVE H/P(F/S)=  4/13 SWL H/P/D(F/S/D)=  2/ 90/13

MASNBO INL 41110 1459               53                N/A
WVE H/P(F/S)=  2/11 SWL H/P/D(F/S/D)=  2/100/11

WILM HARBR 41108 1456               56                N/A
WVE H/P(F/S)=  2/ 5 SWL H/P/D(F/S/D)=  2/120/12

27SE WRITB 41037 1408            67 72   80/  6/ 10 1013.2R
FRYING PAN 41013 1450            67 70  100/  8/ 12 1013.0S
WVE H/P(F/S)=  2/12 SWL H/P/D(F/S/D)=  2/ 80/12

SUNST NRSH 41024 1408            56 56  120/  4/  6 1012.6R
CAPRS NRSH 41029 1408            59 56  230/  8/ 12 1012.6R
EDISTO     41004 1350            69 67  240/ 12/ 14 1012.4
WVE H/P(F/S)=  2/ 4 SWL H/P/D(F/S/D)=  2/100/12



..........OFFSHORE BUOYS BEYOND 100 NM OFFSHORE...........
.....IN A TRIANGLE---HAT TO BERMUDA TO BAHAMAS TO HAT.....


STATION/POSITION TIME  SKY/WX   TEMP    WIND        PRES    VSBY
                                AIR SEA DIR/SP/G
                 (UTC)          (F)     (DEG/KT/KT) (MB)    (MI)
150E HAT   41001 NOT AVBL
W BERMUDA  41048 1450            70 70  220/ 17/ 19 1012.3F
WVE H/P(F/S)=  6/11 SWL H/P/D(F/S/D)=  5/ 30/11

ATLANTIC S 41049 1350            70 74  330/  8/ 12 1016.2
WVE H/P(F/S)=  7/10 SWL H/P/D(F/S/D)=  7/350/10

E BAHAMAS  41046 1450            75 78   80/  4/  6 1018.5R
WVE H/P(F/S)=  5/11 SWL H/P/D(F/S/D)=  5/11

NE BAHAMAS 41047 1450            74 75  270/ 10/ 14 1016.8R
WVE H/P(F/S)=  5/11 SWL H/P/D(F/S/D)=  5/ 30/11

120E CANVRL41010 NOT AVBL

END




USA.gov is the U.S. government's official web portal to all federal, state and local government web resources and services.